N605VV KBLI-KPSC

Flight info

Callsign N605VV
Flight time 0h 38m
Altitude 31000
Route KLSHN2 KLSHN FEBUS NIALS
Aircraft CL60/M-SBDE1E2E3FGHIJ1J4J5J7M3RWXYZ/LB1V1D1

Departure

Time 2026-04-25 14:11
Airport Bellingham International Airport (KBLI)

Arrival

Time 2026-04-25 14:50
Airport Tri Cities Airport (KPSC)
Time Latitude Longitude Altitude Speed Heading
2026-04-25 13:45 48.79393 -122.53235 168 ft 0 kts 49°
2026-04-25 14:07 48.79390 -122.53219 168 ft 3 kts 175°
2026-04-25 14:07 48.79375 -122.53269 168 ft 7 kts 282°
2026-04-25 14:08 48.79414 -122.53340 168 ft 9 kts 323°
2026-04-25 14:08 48.79476 -122.53417 167 ft 13 kts 321°
2026-04-25 14:08 48.79544 -122.53496 167 ft 10 kts 327°
2026-04-25 14:08 48.79625 -122.53508 167 ft 13 kts 357°
2026-04-25 14:09 48.79713 -122.53580 166 ft 16 kts 347°
2026-04-25 14:09 48.79834 -122.53584 165 ft 18 kts
2026-04-25 14:09 48.79975 -122.53583 163 ft 19 kts
2026-04-25 14:09 48.80049 -122.53574 162 ft 16 kts
2026-04-25 14:10 48.80171 -122.53594 161 ft 8 kts 307°
2026-04-25 14:10 48.80178 -122.53702 161 ft 11 kts 270°
2026-04-25 14:10 48.80143 -122.53757 161 ft 9 kts 181°
2026-04-25 14:10 48.79998 -122.53756 163 ft 57 kts 180°
2026-04-25 14:11 48.79265 -122.53752 178 ft 146 kts 180°
2026-04-25 14:11 48.78137 -122.53756 756 ft 175 kts 181°
2026-04-25 14:11 48.76866 -122.53926 1639 ft 196 kts 192°
2026-04-25 14:11 48.75463 -122.54439 2405 ft 229 kts 193°
2026-04-25 14:12 48.73888 -122.55036 3285 ft 253 kts 193°
2026-04-25 14:12 48.72138 -122.55692 4317 ft 270 kts 193°
2026-04-25 14:12 48.70291 -122.56377 4815 ft 275 kts 194°
2026-04-25 14:12 48.68407 -122.57074 4961 ft 276 kts 194°
2026-04-25 14:13 48.66544 -122.57760 4984 ft 282 kts 193°
2026-04-25 14:13 48.64564 -122.58473 5888 ft 298 kts 193°
2026-04-25 14:13 48.62612 -122.59170 7458 ft 292 kts 194°
2026-04-25 14:13 48.60652 -122.59867 8738 ft 296 kts 194°
2026-04-25 14:14 48.58664 -122.60571 9920 ft 301 kts 194°
2026-04-25 14:14 48.56577 -122.61311 10761 ft 319 kts 194°
2026-04-25 14:14 48.54344 -122.62099 11433 ft 340 kts 194°
2026-04-25 14:14 48.52010 -122.62921 12338 ft 350 kts 193°
2026-04-25 14:15 48.49559 -122.63580 13314 ft 359 kts 182°
2026-04-25 14:15 48.48723 -122.63585 13677 ft 360 kts 175°
2026-04-25 14:15 48.44843 -122.61660 15381 ft 359 kts 142°
2026-04-25 14:15 48.43058 -122.59109 16323 ft 358 kts 126°
2026-04-25 14:16 48.41597 -122.56399 17138 ft 364 kts 125°
2026-04-25 14:16 48.39988 -122.53416 18014 ft 369 kts 125°
2026-04-25 14:16 48.38362 -122.50405 18857 ft 374 kts 125°
2026-04-25 14:16 48.36723 -122.47373 19717 ft 378 kts 125°
2026-04-25 14:17 48.35050 -122.44279 20523 ft 382 kts 125°
2026-04-25 14:17 48.33366 -122.41165 21314 ft 386 kts 125°
2026-04-25 14:17 48.31675 -122.38042 22058 ft 390 kts 125°
2026-04-25 14:17 48.29969 -122.34892 22764 ft 394 kts 125°
2026-04-25 14:18 48.28229 -122.31683 23450 ft 398 kts 125°
2026-04-25 14:18 48.26468 -122.28437 24126 ft 402 kts 125°
2026-04-25 14:18 48.24705 -122.25191 24779 ft 405 kts 125°
2026-04-25 14:18 48.22927 -122.21922 25437 ft 408 kts 125°
2026-04-25 14:19 48.21124 -122.18610 26131 ft 409 kts 125°
2026-04-25 14:19 48.19440 -122.15519 26711 ft 411 kts 125°
2026-04-25 14:19 48.17619 -122.12180 27305 ft 413 kts 125°
2026-04-25 14:19 48.15802 -122.08853 27863 ft 416 kts 125°
2026-04-25 14:20 48.13971 -122.05502 28360 ft 419 kts 125°
2026-04-25 14:20 48.12726 -122.03226 28717 ft 420 kts 125°
2026-04-25 14:20 48.10239 -121.98686 29382 ft 423 kts 125°
2026-04-25 14:20 48.08366 -121.95273 29837 ft 425 kts 126°
2026-04-25 14:21 48.06502 -121.91879 30280 ft 427 kts 126°
2026-04-25 14:21 48.04603 -121.88425 30711 ft 429 kts 126°
2026-04-25 14:21 48.02688 -121.84945 30945 ft 435 kts 126°
2026-04-25 14:22 47.98763 -121.77823 30979 ft 454 kts 126°
2026-04-25 14:22 47.94703 -121.70482 30984 ft 464 kts 126°
2026-04-25 14:23 47.90572 -121.63035 30975 ft 464 kts 126°
2026-04-25 14:23 47.86459 -121.55640 30971 ft 461 kts 126°
2026-04-25 14:24 47.82369 -121.48306 30965 ft 460 kts 126°
2026-04-25 14:24 47.78250 -121.40937 30960 ft 459 kts 126°
2026-04-25 14:25 47.74172 -121.33660 30949 ft 459 kts 127°
2026-04-25 14:25 47.70088 -121.26391 30936 ft 460 kts 127°
2026-04-25 14:26 47.65975 -121.19089 30937 ft 460 kts 127°
2026-04-25 14:26 47.61869 -121.11820 30929 ft 460 kts 127°
2026-04-25 14:27 47.57760 -121.04564 30912 ft 460 kts 127°
2026-04-25 14:27 47.53641 -120.97310 30903 ft 459 kts 128°
2026-04-25 14:28 47.49515 -120.90063 30908 ft 459 kts 128°
2026-04-25 14:28 47.45396 -120.82847 30916 ft 459 kts 128°
2026-04-25 14:29 47.41288 -120.75668 30908 ft 460 kts 128°
2026-04-25 14:29 47.37142 -120.68443 30934 ft 459 kts 128°
2026-04-25 14:29 47.35072 -120.64844 30671 ft 456 kts 128°
2026-04-25 14:30 47.33054 -120.61340 30118 ft 447 kts 128°
2026-04-25 14:30 47.29099 -120.54486 29019 ft 432 kts 127°
2026-04-25 14:30 47.27178 -120.51162 28473 ft 425 kts 127°
2026-04-25 14:31 47.25288 -120.47894 27922 ft 419 kts 127°
2026-04-25 14:31 47.23404 -120.44641 27371 ft 413 kts 127°
2026-04-25 14:31 47.21568 -120.41475 26849 ft 407 kts 127°
2026-04-25 14:31 47.19747 -120.38337 26307 ft 402 kts 127°
2026-04-25 14:32 47.17931 -120.35211 25794 ft 396 kts 127°
2026-04-25 14:32 47.16163 -120.32172 25271 ft 396 kts 128°
2026-04-25 14:32 47.14359 -120.29073 24753 ft 397 kts 128°
2026-04-25 14:32 47.12595 -120.26046 24231 ft 396 kts 128°
2026-04-25 14:33 47.10815 -120.22995 23717 ft 393 kts 128°
2026-04-25 14:33 47.09040 -120.19958 23193 ft 391 kts 128°
2026-04-25 14:33 47.07288 -120.16963 22687 ft 388 kts 128°
2026-04-25 14:33 47.05523 -120.13950 22182 ft 385 kts 128°
2026-04-25 14:34 47.03794 -120.10999 21671 ft 383 kts 128°
2026-04-25 14:34 47.02077 -120.08072 21183 ft 382 kts 128°
2026-04-25 14:34 47.00348 -120.05130 20675 ft 380 kts 128°
2026-04-25 14:34 46.98620 -120.02190 20176 ft 379 kts 128°
2026-04-25 14:35 46.96954 -119.99361 19690 ft 377 kts 128°
2026-04-25 14:35 46.95247 -119.96465 19191 ft 376 kts 128°
2026-04-25 14:35 46.93548 -119.93584 18691 ft 374 kts 128°
2026-04-25 14:35 46.91901 -119.90794 18214 ft 373 kts 128°
2026-04-25 14:36 46.90207 -119.87937 17715 ft 371 kts 129°
2026-04-25 14:36 46.88420 -119.85272 17217 ft 369 kts 135°
2026-04-25 14:36 46.86455 -119.82838 16673 ft 367 kts 139°
2026-04-25 14:36 46.84504 -119.80518 16206 ft 363 kts 139°
2026-04-25 14:37 46.82558 -119.78197 15724 ft 361 kts 139°
2026-04-25 14:37 46.80619 -119.75881 15244 ft 358 kts 139°
2026-04-25 14:37 46.78696 -119.73583 14773 ft 355 kts 139°
2026-04-25 14:37 46.76803 -119.71319 14296 ft 351 kts 139°
2026-04-25 14:38 46.74929 -119.69077 13845 ft 345 kts 139°
2026-04-25 14:38 46.73080 -119.66863 13384 ft 340 kts 139°
2026-04-25 14:38 46.71285 -119.64716 12935 ft 334 kts 139°
2026-04-25 14:38 46.69496 -119.62574 12498 ft 329 kts 139°
2026-04-25 14:39 46.67739 -119.60472 12065 ft 324 kts 139°
2026-04-25 14:39 46.66021 -119.58416 11644 ft 319 kts 139°
2026-04-25 14:39 46.64408 -119.56487 11240 ft 315 kts 139°
2026-04-25 14:39 46.62736 -119.54486 10830 ft 311 kts 139°
2026-04-25 14:40 46.61093 -119.52523 10386 ft 301 kts 139°
2026-04-25 14:40 46.59562 -119.50695 10045 ft 290 kts 138°
2026-04-25 14:40 46.58165 -119.48834 9679 ft 279 kts 127°
2026-04-25 14:40 46.57077 -119.46734 9336 ft 270 kts 123°
2026-04-25 14:41 46.55984 -119.44548 8978 ft 262 kts 123°
2026-04-25 14:41 46.54935 -119.42468 8655 ft 255 kts 123°
2026-04-25 14:41 46.53898 -119.40424 8377 ft 247 kts 123°
2026-04-25 14:41 46.52916 -119.38493 7993 ft 241 kts 123°
2026-04-25 14:42 46.51984 -119.36657 7718 ft 232 kts 123°
2026-04-25 14:42 46.51358 -119.35425 7444 ft 230 kts 123°
2026-04-25 14:42 46.50085 -119.32915 7131 ft 234 kts 124°
2026-04-25 14:42 46.49125 -119.31023 6753 ft 227 kts 124°
2026-04-25 14:43 46.48191 -119.29185 6504 ft 229 kts 124°
2026-04-25 14:43 46.47245 -119.27322 6158 ft 227 kts 124°
2026-04-25 14:43 46.46322 -119.25509 5886 ft 223 kts 124°
2026-04-25 14:43 46.45409 -119.23717 5584 ft 212 kts 124°
2026-04-25 14:44 46.44563 -119.22057 5317 ft 202 kts 124°
2026-04-25 14:44 46.43746 -119.20453 5051 ft 193 kts 124°
2026-04-25 14:44 46.42976 -119.18941 4809 ft 181 kts 124°
2026-04-25 14:44 46.42239 -119.17489 4568 ft 176 kts 124°
2026-04-25 14:45 46.41522 -119.16060 4332 ft 176 kts 123°
2026-04-25 14:45 46.40802 -119.14627 4097 ft 175 kts 124°
2026-04-25 14:45 46.40083 -119.13197 3864 ft 175 kts 124°
2026-04-25 14:45 46.39372 -119.11782 3637 ft 174 kts 124°
2026-04-25 14:46 46.38658 -119.10362 3407 ft 174 kts 124°
2026-04-25 14:46 46.37944 -119.08946 3171 ft 173 kts 124°
2026-04-25 14:46 46.37233 -119.07533 2942 ft 174 kts 124°
2026-04-25 14:46 46.36527 -119.06132 2712 ft 173 kts 124°
2026-04-25 14:47 46.35754 -119.04780 2474 ft 171 kts 139°
2026-04-25 14:47 46.35075 -119.04251 2315 ft 164 kts 161°
2026-04-25 14:47 46.33691 -119.03960 2042 ft 139 kts 179°
2026-04-25 14:47 46.32733 -119.04109 1875 ft 139 kts 191°
2026-04-25 14:48 46.31827 -119.04562 1679 ft 138 kts 205°
2026-04-25 14:48 46.31016 -119.05334 1503 ft 138 kts 220°
2026-04-25 14:48 46.30331 -119.06306 1320 ft 138 kts 225°
2026-04-25 14:48 46.29659 -119.07305 1135 ft 137 kts 225°
2026-04-25 14:49 46.29010 -119.08305 964 ft 137 kts 226°
2026-04-25 14:49 46.28361 -119.09301 827 ft 135 kts 225°
2026-04-25 14:49 46.27686 -119.10277 647 ft 136 kts 225°
2026-04-25 14:49 46.27025 -119.11243 466 ft 135 kts 225°
2026-04-25 14:50 46.26413 -119.12148 408 ft 98 kts 223°
2026-04-25 14:50 46.26112 -119.12587 407 ft 38 kts 227°
2026-04-25 14:50 46.25992 -119.12758 408 ft 11 kts 222°
2026-04-25 14:50 46.25892 -119.12695 408 ft 12 kts 141°
2026-04-25 14:51 46.25831 -119.12556 408 ft 24 kts 68°
2026-04-25 14:51 46.25905 -119.12302 408 ft 22 kts 67°
2026-04-25 14:51 46.25964 -119.12128 408 ft 20 kts 50°
2026-04-25 14:51 46.26066 -119.11977 408 ft 22 kts 45°
2026-04-25 14:52 46.26178 -119.11809 408 ft 24 kts 46°
2026-04-25 14:52 46.26297 -119.11633 409 ft 23 kts 46°
2026-04-25 14:52 46.26417 -119.11455 409 ft 25 kts 46°
2026-04-25 14:52 46.26479 -119.11364 410 ft 4 kts 59°
2026-04-25 14:53 46.26436 -119.11296 410 ft 9 kts 136°
2026-04-25 14:53 46.26385 -119.11224 411 ft 11 kts 135°
2026-04-25 14:53 46.26321 -119.11134 411 ft 14 kts 135°
2026-04-25 14:53 46.26258 -119.11041 412 ft 13 kts 122°
2026-04-25 14:54 46.26294 -119.10921 413 ft 14 kts 72°
2026-04-25 14:54 46.26327 -119.10778 414 ft 15 kts 71°
2026-04-25 14:54 46.26354 -119.10667 415 ft 9 kts 70°
2026-04-25 14:54 46.26386 -119.10592 416 ft 9 kts 34°
2026-04-25 14:55 46.26381 -119.10546 416 ft 0 kts 154°